Location: Peebles
(55.6412°N, 3.1714°W)
Time: 16:43:23
(UTC+01:00)

USA 281 - Pass Details

Date: 26 January 2022
Orbit: 1070 x 1089 km, 106.0° (Epoch: 25 March)

Event Time Altitude Azimuth Distance (km) Brightness Sun altitude
Rises 06:47:23 0° 53° (NE) 3,895 6.7 -12.3°
Reaches altitude 10° 06:50:53 10° 34° (NE) 2,942 5.8 -11.8°
Maximum altitude 06:54:47 17° 358° (N) 2,470 4.9 -11.3°
Drops below altitude 10° 06:58:41 10° 321° (NW) 2,947 5.0 -10.8°
Enters shadow 06:59:17 - 317° (NW) 3,086 5.1 -10.7°
